Theta_e
314 317 317 317 318 320 324 324 323 325 325 322 319 317 316 315 316 318 317 319 322 321 320 319 319 321 321 322 323 318 320 326 327 328 330 331 331 332 333 333 332 328 330 332 332 332 332 332 334 334 334 333 333 332 327 325 321 316 316 316 316 316 315 312 313 315 318 319 321 323 323 321 320 320 320 320 321 322 321 322 322 322 324 325 325 325
316 318 320 320 322 325 328 328 328 329 328 324 321 317 317 315 316 319 319 318 325 327 323 321 321 321 322 322 321 319 320 325 327 328 329 330 330 330 332 333 332 331 331 332 332 333 332 333 334 333 334 333 333 330 325 323 320 316 315 314 315 317 315 313 314 318 321 321 321 322 321 321 321 321 321 319 319 320 321 322 321 319 320 321 322 323
318 319 321 321 326 328 326 328 330 328 326 323 321 318 317 317 316 324 327 319 322 325 322 323 323 322 325 323 322 322 321 323 326 328 329 329 329 329 330 332 333 332 331 331 332 333 332 332 333 333 334 333 332 331 326 327 324 317 314 313 315 317 315 314 316 321 322 322 322 322 321 320 320 321 321 317 311 311 313 314 315 318 322 321 320 321
320 320 321 323 327 326 323 326 327 325 324 322 320 317 317 316 314 322 329 323 325 326 321 324 327 326 326 324 324 324 319 320 325 327 328 328 329 328 329 330 333 333 331 331 333 332 332 331 332 333 334 333 333 331 328 330 330 321 314 312 314 316 314 315 320 323 322 322 323 323 322 322 321 321 319 312 307 308 307 309 312 319 323 322 321 320
318 319 321 324 328 327 323 322 321 321 323 324 322 319 317 317 316 319 326 327 329 330 325 325 327 330 327 322 325 326 321 320 322 324 326 327 327 328 328 328 330 333 331 331 333 332 332 331 331 332 334 334 332 331 330 331 333 327 317 312 312 313 313 316 319 320 319 321 322 322 322 322 321 319 313 308 309 310 308 309 311 313 317 319 321 319
316 319 321 324 324 324 323 321 321 321 321 324 326 324 321 321 320 320 324 326 325 326 329 326 324 330 330 321 322 325 324 321 320 322 322 321 325 327 328 328 330 332 330 330 331 331 331 331 330 331 333 334 333 333 332 332 334 331 322 315 312 312 314 316 317 316 316 317 317 317 317 315 314 313 310 309 310 309 308 309 308 308 309 312 314 313
317 319 321 323 323 322 321 320 321 322 320 320 325 326 323 321 322 322 322 322 321 324 331 327 323 329 330 323 323 323 323 323 322 325 322 318 324 326 327 329 331 331 329 329 331 330 330 330 330 330 331 333 334 334 334 333 333 332 327 319 313 312 313 315 315 314 312 313 312 311 310 308 308 310 311 311 309 308 309 308 308 308 308 307 308 309
322 321 320 322 321 319 319 320 323 324 318 320 326 324 321 321 322 323 322 319 320 323 326 325 321 322 323 325 328 323 322 324 322 325 323 319 324 328 329 330 331 330 328 328 329 328 329 329 328 329 330 331 332 334 336 334 331 330 329 325 317 314 313 313 314 313 311 311 310 309 309 309 310 309 310 311 309 308 308 308 308 308 307 308 307 307
325 323 322 323 320 318 319 319 322 322 317 322 328 323 319 320 321 322 321 319 321 321 321 325 321 318 321 329 330 322 320 322 323 326 325 320 322 327 330 331 330 329 328 327 327 327 327 328 327 326 328 329 329 331 334 335 333 331 331 330 324 317 313 313 313 312 311 310 309 311 311 311 313 311 309 309 308 307 308 307 308 308 308 308 307 307
323 321 322 322 319 319 319 319 318 318 319 323 324 321 319 319 321 322 320 321 323 323 324 328 321 316 322 329 327 322 321 322 325 327 325 320 318 324 328 330 329 328 328 327 327 328 327 327 327 325 326 327 327 328 331 335 335 333 333 332 329 321 313 312 313 312 312 310 310 314 314 312 313 311 309 309 308 308 308 308 309 308 308 308 308 307
317 317 318 318 318 318 317 317 316 315 319 322 320 319 319 320 321 320 321 323 322 325 328 327 321 318 322 326 325 327 326 326 328 325 323 321 318 320 324 327 328 328 329 328 327 327 327 327 327 326 326 326 326 327 330 333 334 334 333 331 331 327 317 312 313 312 311 310 312 316 315 312 311 310 309 309 309 308 308 308 309 308 308 309 308 307
316 315 317 316 317 316 314 315 315 314 316 318 319 319 319 322 325 322 325 326 323 327 329 323 320 319 320 323 326 329 327 326 327 325 324 322 319 319 320 323 326 326 327 329 329 329 328 327 327 327 326 326 325 325 327 331 332 333 333 327 326 329 323 314 311 312 311 310 313 316 316 314 312 310 308 309 309 309 309 308 308 309 309 308 308 308
318 316 315 316 316 314 314 314 313 315 316 316 317 317 315 318 324 325 327 327 325 328 329 322 320 320 322 325 326 325 323 322 324 322 321 320 319 319 319 321 325 324 324 327 328 329 328 327 327 327 326 326 325 325 326 329 329 330 329 323 322 328 328 321 312 311 312 310 313 317 316 316 313 310 309 309 310 309 309 309 309 309 310 309 308 308
322 323 317 316 317 314 314 314 314 314 314 315 316 317 317 317 320 323 323 324 324 325 326 324 321 320 324 327 325 322 321 320 320 319 319 319 318 319 321 324 325 324 324 324 324 326 326 325 327 327 327 326 326 327 327 327 328 328 326 323 323 325 328 327 317 311 311 311 313 317 317 317 314 311 310 310 309 309 309 309 310 310 310 310 309 309
319 324 321 317 316 314 314 314 315 314 313 316 316 317 321 320 321 324 321 321 322 321 322 322 320 321 326 331 329 322 318 318 319 319 320 319 319 321 324 326 326 326 325 322 321 322 322 325 327 328 329 328 327 328 329 329 329 329 327 324 324 324 325 328 323 313 311 311 314 318 318 318 316 312 312 311 310 309 310 310 311 312 312 311 311 310
314 318 319 317 316 314 314 315 314 315 316 318 316 317 320 321 323 326 323 321 319 319 323 322 322 324 328 332 330 321 318 318 318 319 318 319 321 322 325 327 328 328 327 324 321 319 320 324 328 330 331 330 329 328 329 330 330 330 329 325 325 324 324 328 326 319 315 313 315 319 319 319 317 314 314 315 312 311 313 313 313 314 315 314 312 312
314 318 317 315 316 314 315 315 313 315 318 317 315 316 320 320 322 324 321 320 319 321 325 322 321 322 321 323 323 320 321 319 318 319 317 319 322 323 324 327 328 329 328 327 325 323 322 325 328 330 330 332 332 330 330 331 330 330 329 327 326 324 324 327 325 323 322 319 318 320 320 320 319 315 316 318 315 314 317 318 316 316 317 315 314 314
315 318 319 313 314 315 315 315 314 314 315 314 314 315 318 318 320 323 321 319 318 319 321 319 319 319 318 321 322 320 320 319 318 320 318 320 323 323 324 326 326 328 327 327 328 326 325 326 327 328 329 330 331 330 330 330 330 330 330 329 327 325 325 327 324 321 322 321 320 321 320 320 320 316 317 320 319 317 319 320 319 318 317 315 314 313
315 316 320 315 313 315 313 313 315 315 314 314 313 314 317 319 319 320 320 320 319 319 321 323 321 318 319 325 324 319 319 319 318 319 320 322 323 322 323 325 325 326 327 327 327 327 326 326 326 326 327 328 328 328 329 329 329 329 328 328 328 327 325 326 324 319 318 317 318 322 321 320 320 317 316 319 320 319 319 320 320 319 317 315 315 313
315 316 321 319 314 314 315 316 317 317 316 316 313 312 315 317 316 317 320 321 320 320 322 322 319 318 324 328 324 320 322 322 320 321 322 322 322 323 324 324 324 326 326 327 326 325 325 325 325 325 325 326 327 327 327 328 327 327 327 327 328 327 326 325 324 321 319 315 316 322 323 320 321 320 317 318 319 320 319 319 319 319 319 318 317 316
317 318 322 322 316 313 315 317 317 316 316 317 316 314 315 318 319 319 319 317 316 319 322 320 316 322 329 326 321 322 324 323 323 325 324 321 322 324 323 323 324 324 325 325 326 325 325 325 326 326 325 325 325 326 326 326 326 326 327 326 327 327 327 325 324 322 320 317 316 321 323 321 322 322 320 319 320 320 320 320 320 319 319 319 319 318
319 318 320 322 317 314 314 314 313 313 314 316 317 315 317 323 326 325 323 320 316 319 325 322 319 327 332 324 321 323 322 320 321 323 323 322 323 323 323 323 323 323 323 323 323 324 324 324 325 325 326 325 325 325 326 325 325 325 326 326 326 327 326 325 323 321 320 319 319 321 322 322 323 323 322 322 321 322 321 321 321 320 319 319 318 318
319 318 318 318 316 313 313 313 313 313 311 314 316 315 316 320 323 322 323 324 319 318 324 322 319 329 334 328 324 324 320 318 319 321 321 322 322 323 322 323 323 323 323 322 322 322 322 323 323 324 325 325 325 326 326 325 325 325 325 326 326 325 325 325 323 321 321 321 321 322 323 323 322 324 323 322 322 322 321 321 320 319 319 318 317 317
318 318 316 317 317 316 315 313 312 312 310 312 315 315 314 314 316 316 318 322 321 318 320 319 318 325 333 330 323 319 317 318 320 321 321 321 321 321 321 321 322 322 322 322 323 322 321 320 320 322 324 325 325 325 325 325 325 325 325 325 325 324 324 323 322 323 323 322 323 324 324 324 323 324 324 322 321 320 319 318 318 318 318 318 317 316
318 318 317 316 317 319 319 317 316 316 314 314 315 316 315 314 318 319 318 322 323 316 316 319 318 321 328 327 320 316 317 319 319 320 320 320 320 320 320 319 319 319 320 320 320 320 320 319 317 318 320 323 323 323 324 325 325 325 325 325 325 324 323 323 322 323 323 323 324 324 323 323 323 323 323 322 322 321 319 317 317 317 318 318 318 317
318 318 318 316 316 319 321 318 316 315 313 314 315 315 315 315 318 320 319 321 322 318 316 319 320 320 322 323 321 319 318 319 318 318 318 319 319 318 317 317 316 316 317 317 318 318 318 318 316 315 315 315 317 318 321 324 325 325 325 325 325 324 323 324 323 324 324 324 324 322 322 322 322 321 321 321 322 321 319 319 319 319 319 318 318 317
317 317 317 316 316 318 317 314 312 311 312 313 313 314 315 316 317 318 317 319 320 320 319 320 322 322 319 319 320 319 318 318 319 318 318 317 317 317 316 316 316 315 315 316 316 316 315 315 315 315 314 313 313 314 316 319 321 323 323 324 323 323 323 324 324 324 323 322 322 322 321 322 322 321 321 321 321 320 320 320 320 319 319 318 318 317
315 315 316 315 313 313 311 310 310 310 310 311 312 314 314 316 317 314 315 319 319 318 321 322 320 319 317 315 317 318 318 319 318 316 317 317 317 317 316 316 315 315 315 315 314 314 313 313 314 314 313 313 313 312 312 313 314 316 317 317 318 319 321 323 322 322 321 322 322 322 322 322 322 321 322 322 321 320 320 320 319 319 319 318 318 317
314 315 315 312 311 311 309 310 310 309 310 310 312 314 315 316 316 313 314 319 316 314 320 321 316 316 316 314 315 315 315 315 314 314 315 317 317 317 316 316 316 316 315 315 315 314 313 313 313 313 313 313 313 313 313 312 312 311 311 310 312 314 315 316 315 315 316 318 319 318 316 315 315 315 316 317 317 317 318 318 318 318 318 318 318 317
315 316 313 311 312 311 310 311 311 310 311 311 311 312 313 313 315 315 315 316 314 314 319 320 317 316 315 313 314 313 312 312 312 312 313 314 316 317 317 316 316 316 316 315 315 315 314 313 313 312 312 313 312 313 312 312 312 311 309 308 309 310 311 311 311 311 311 311 311 311 310 310 310 310 310 311 312 313 315 314 315 316 316 315 315 314
314 316 314 313 315 313 311 311 311 310 310 310 310 313 314 314 315 316 316 315 314 315 317 319 319 316 312 311 312 311 311 311 311 310 311 311 312 315 316 316 316 315 315 315 315 315 314 313 313 312 312 312 312 312 312 311 311 310 309 308 308 308 309 309 309 310 310 308 307 309 309 310 311 310 310 311 312 312 312 312 313 314 315 315 315 315
314 315 314 313 315 315 311 309 311 310 310 311 313 315 316 315 315 315 316 315 314 313 315 317 316 314 311 310 310 310 310 310 310 310 310 310 310 312 313 313 314 314 314 315 315 315 315 313 312 312 312 311 311 311 311 310 310 309 309 308 308 308 307 306 306 307 308 307 306 307 308 309 309 308 309 310 311 310 311 312 313 313 313 314 313 314
314 314 314 314 314 313 311 311 312 311 311 314 315 313 313 313 314 315 315 315 313 313 314 313 311 310 309 308 310 311 310 309 310 310 310 310 309 310 310 311 312 312 313 314 314 314 314 313 313 312 311 310 310 310 309 309 309 310 309 308 308 308 306 305 306 307 307 306 306 307 307 307 307 307 308 308 308 308 309 310 310 310 310 311 311 311
312 312 314 313 313 312 312 313 314 312 313 315 314 312 313 314 314 314 314 313 313 313 313 311 309 309 308 307 308 309 309 309 309 309 309 309 309 309 309 310 310 311 312 313 313 313 313 312 311 311 310 310 309 309 308 307 308 309 308 308 307 307 306 306 307 307 307 306 306 306 305 305 304 305 306 307 307 307 306 307 307 307 308 309 310 309
313 313 312 311 312 312 313 313 313 311 312 313 311 311 313 313 313 315 314 311 310 312 312 310 308 308 306 306 306 306 307 308 308 307 308 307 308 308 308 309 310 310 310 311 311 312 311 311 311 310 310 309 309 309 307 307 307 308 308 308 308 307 306 306 306 307 307 307 306 307 306 306 306 306 305 305 305 304 304 304 304 305 306 307 307 307
314 314 312 311 313 313 311 311 312 311 310 313 312 311 311 312 313 316 315 310 307 308 309 308 308 307 305 305 305 305 306 307 307 307 306 306 306 307 307 307 308 309 309 310 310 310 310 309 309 309 309 309 309 308 307 307 307 307 308 308 308 308 307 306 306 307 307 307 307 307 306 306 307 307 307 305 304 303 303 303 303 303 304 304 304 304
311 313 313 312 313 314 311 311 313 310 309 313 313 310 310 311 311 313 313 308 305 306 306 306 307 306 304 304 305 305 306 307 308 306 305 306 306 306 306 306 306 307 308 308 309 309 309 308 308 308 308 308 307 307 307 307 306 306 307 307 307 307 307 307 307 307 307 306 306 306 306 306 307 308 308 306 305 304 303 303 303 303 303 302 301 301
309 311 312 311 311 313 311 310 310 308 308 311 312 309 307 308 307 309 310 308 305 304 304 305 305 304 303 304 305 304 305 308 308 306 304 304 305 305 305 305 305 305 306 306 307 307 307 307 307 307 307 307 306 306 306 306 305 305 306 307 307 307 307 307 307 307 307 307 306 306 306 306 306 307 307 307 306 306 305 304 303 303 303 302 301 300
309 310 312 312 311 311 310 309 308 308 308 309 309 307 305 305 306 308 310 308 304 303 303 304 304 303 303 303 303 304 306 307 307 305 303 303 304 304 304 304 304 305 305 305 305 305 305 305 305 305 305 305 305 305 305 304 304 305 305 306 306 306 306 306 306 306 307 307 307 307 306 306 306 306 307 307 306 306 305 304 303 303 304 303 301 300
311 312 313 312 309 310 311 310 308 308 308 307 306 305 304 304 306 309 309 306 303 302 302 303 303 303 303 303 303 304 306 305 304 303 303 303 303 303 303 303 303 304 304 304 304 304 304 304 304 304 304 303 304 304 304 304 304 304 304 304 305 305 305 305 305 306 306 307 307 306 306 306 306 306 305 305 305 305 305 305 305 305 305 304 302 302
311 312 311 310 309 309 309 309 307 308 307 306 305 304 303 304 307 308 305 303 302 302 302 301 302 302 302 302 302 303 303 303 302 302 302 302 302 302 302 302 302 303 303 304 304 304 304 304 304 304 303 303 303 303 303 303 303 303 304 303 304 304 304 304 304 305 305 305 305 306 306 306 306 305 305 305 305 306 306 306 306 306 306 304 303 303
310 310 310 310 309 308 308 308 307 307 305 303 303 303 303 306 307 305 302 302 301 301 301 301 301 301 301 301 301 301 301 301 301 301 301 301 301 301 301 301 301 301 302 302 303 303 303 304 304 303 303 303 303 303 303 303 303 303 303 303 303 304 304 304 304 304 305 305 305 305 305 306 306 306 305 305 305 305 306 306 307 306 306 305 303 304
307 309 309 308 307 307 307 307 307 307 305 303 302 303 303 305 305 302 301 301 301 300 300 300 300 300 300 300 300 299 299 299 300 300 300 300 300 300 300 300 300 300 301 301 301 302 302 302 303 303 303 303 303 303 303 302 303 303 302 302 303 303 303 303 304 304 304 305 305 305 305 305 305 305 305 305 305 305 305 305 306 305 305 305 305 306
304 306 306 305 305 306 306 306 307 307 305 302 302 302 302 302 302 300 300 300 299 299 299 299 299 299 299 299 299 299 299 299 299 299 299 299 299 299 299 299 299 299 300 300 300 300 300 301 301 302 302 302 302 302 302 302 302 302 302 302 302 302 302 303 303 303 304 304 304 304 304 304 304 304 304 305 304 304 304 304 304 304 305 306 307 308
303 303 303 303 304 303 303 304 306 305 302 300 301 300 300 300 299 299 299 299 299 299 299 298 299 298 298 298 299 298 299 299 299 299 299 299 299 299 299 299 299 299 299 299 300 300 299 300 300 301 301 301 301 301 302 302 302 302 302 302 302 302 302 302 302 303 303 303 303 303 303 304 304 304 303 303 304 303 303 304 304 305 306 307 308 309
300 300 301 302 303 303 302 301 301 300 300 299 300 299 299 299 299 299 299 299 299 299 298 298 299 298 298 299 299 299 299 299 299 299 299 299 299 299 299 299 299 299 299 299 299 299 300 300 300 300 301 301 301 301 301 301 301 302 302 302 302 302 302 302 303 303 303 303 303 303 303 303 303 303 303 304 304 304 304 305 305 306 307 308 308 308
299 299 300 301 303 304 303 300 298 298 299 299 299 299 299 299 299 299 299 299 299 299 299 299 299 299 299 299 299 299 299 299 299 299 299 299 299 299 299 299 299 299 299 299 299 300 300 300 300 300 300 300 300 301 301 301 301 301 301 302 302 302 302 302 302 302 303 303 303 303 303 303 304 304 304 304 304 304 305 305 306 306 307 308 307 308
300 300 300 300 300 301 301 299 297 298 298 298 298 299 299 299 298 298 298 299 299 299 299 299 299 299 299 299 299 299 299 299 299 299 299 299 299 299 299 299 299 299 299 299 299 300 300 300 300 300 300 300 300 300 300 300 300 301 301 301 301 302 302 302 302 302 302 303 303 303 303 304 304 304 304 304 304 304 305 305 305 305 306 306 306 307
300 300 299 300 301 301 300 298 298 298 299 299 298 299 299 299 299 298 298 299 299 299 299 298 298 298 298 298 298 299 299 299 299 299 299 299 299 299 299 299 299 299 299 299 300 300 300 300 300 300 300 300 300 300 300 300 300 300 301 301 301 301 301 301 301 302 302 302 302 302 303 303 303 303 303 304 304 304 304 305 304 305 305 305 305 305
299 299 299 300 301 301 299 298 298 299 299 299 299 299 299 298 299 299 299 299 298 298 298 298 298 298 298 298 298 298 298 298 298 298 299 299 299 298 298 298 299 299 299 299 299 300 300 300 300 300 300 300 300 300 300 300 301 301 301 301 301 300 300 300 301 301 302 302 302 302 302 302 303 303 303 303 304 304 304 304 305 305 305 305 305 305
298 298 298 299 299 299 298 298 298 299 299 299 298 299 298 298 299 298 298 298 298 298 298 298 298 298 297 297 297 297 298 298 298 298 298 298 298 298 298 298 299 299 299 299 299 299 299 299 299 299 299 300 300 300 300 300 300 300 300 300 300 300 300 301 301 302 302 302 302 302 302 302 302 303 303 303 303 304 304 304 305 305 305 305 306 306
Wind_Speed
10 4 4 6 6 8 6 3 3 2 3 4 6 6 7 8 5 5 8 5 5 6 3 3 4 5 4 7 8 12 18 22 23 22 22 23 26 29 29 29 28 26 25 22 24 26 24 28 27 22 26 28 24 22 24 25 24 24 24 22 21 20 18 17 16 15 14 13 15 14 12 9 7 6 8 8 7 6 6 6 6 6 6 7 8 8
9 5 6 9 9 9 7 3 2 4 5 5 5 5 7 7 6 4 6 2 6 6 2 5 3 5 4 2 5 7 12 15 20 21 22 25 25 28 30 31 31 29 27 25 27 27 26 29 29 25 27 28 24 23 24 25 25 25 24 23 22 21 19 17 15 13 12 11 12 13 13 12 8 8 8 6 6 7 7 7 5 5 7 8 9 10
5 5 9 11 9 6 3 3 5 5 5 4 4 5 6 5 5 6 5 5 7 4 2 6 6 6 6 5 5 3 6 12 26 29 28 29 24 25 29 31 32 31 29 30 30 29 27 30 32 27 27 27 24 23 24 24 24 25 25 23 22 21 19 17 15 13 13 13 13 12 13 12 9 9 8 4 6 8 8 8 7 8 11 11 11 10
4 7 11 11 8 4 1 4 5 5 4 2 2 3 5 6 3 4 4 4 5 2 1 4 6 6 6 7 7 3 3 12 28 35 34 34 30 28 30 32 33 32 30 32 33 32 28 29 33 30 27 27 25 24 24 24 23 24 25 23 22 21 19 18 17 16 16 16 16 14 13 12 9 9 7 6 10 10 10 10 10 11 11 11 11 8
7 7 5 5 7 6 4 3 2 2 3 4 4 3 5 7 3 1 3 3 5 4 2 4 5 5 6 5 6 6 3 11 21 27 28 29 31 33 31 31 34 33 32 35 35 33 30 31 34 32 28 27 26 25 25 25 24 24 24 23 21 20 19 19 19 18 17 17 18 17 16 13 12 11 9 9 12 11 11 12 10 10 10 11 10 6
9 7 7 6 3 3 5 2 2 3 0 4 4 6 7 8 7 3 2 3 6 5 3 4 4 5 7 5 7 6 2 7 11 14 15 15 22 31 30 29 32 32 32 35 36 34 32 32 33 32 31 29 28 27 27 26 24 22 22 22 21 21 20 19 19 18 16 17 17 17 16 15 15 15 12 11 13 12 11 12 11 11 10 10 8 6
5 5 7 7 3 2 3 0 3 3 1 3 4 5 5 6 8 6 2 3 3 2 3 5 5 3 6 6 8 6 2 6 5 8 8 9 19 30 32 30 32 31 31 33 34 33 32 33 34 34 33 32 31 29 28 27 24 22 22 22 21 21 21 19 17 17 17 16 15 15 15 15 16 16 14 12 12 12 12 11 12 12 12 11 10 10
1 4 4 5 4 1 1 2 5 5 4 3 5 5 5 5 6 4 2 1 3 3 3 2 6 2 4 6 7 5 3 4 4 6 6 11 23 31 32 31 33 33 34 35 34 33 32 33 34 35 34 33 32 30 28 27 25 22 22 21 21 22 22 19 17 17 17 17 16 17 17 16 16 15 14 14 13 12 11 12 12 13 13 13 13 12
3 5 4 4 4 2 3 4 6 5 4 5 6 4 2 4 7 7 4 3 2 1 4 4 2 1 3 6 6 6 4 2 6 6 5 8 18 30 35 36 38 38 38 36 34 32 32 31 32 32 33 32 30 29 28 27 25 24 22 20 20 21 22 20 18 18 17 17 18 18 17 17 16 14 14 14 14 12 11 12 13 12 12 13 13 14
3 6 7 4 4 3 5 6 7 6 6 5 4 1 3 4 4 6 5 3 3 4 3 6 2 0 3 6 4 4 3 4 6 5 7 4 7 22 32 32 32 31 33 32 30 29 29 29 30 29 29 29 29 28 28 28 27 26 25 21 20 21 23 21 20 19 19 19 19 17 16 17 17 16 15 15 14 13 11 12 12 11 12 12 13 14
4 5 5 3 4 3 3 4 6 7 4 3 1 2 4 2 3 4 3 1 4 2 5 6 4 2 3 5 3 1 3 6 5 3 7 6 9 18 24 27 30 28 28 31 29 28 29 28 28 27 26 27 28 28 29 30 29 29 28 25 21 22 25 24 22 21 21 20 19 17 16 17 18 17 16 16 14 13 12 12 12 12 13 12 12 13
5 2 2 3 6 4 3 4 6 7 3 3 3 3 4 4 3 2 3 4 3 3 5 4 4 3 2 4 5 4 3 4 6 4 6 8 13 21 23 22 26 24 22 27 29 30 30 28 26 25 25 26 27 27 29 31 31 32 32 29 26 26 28 27 24 24 22 22 21 18 17 17 16 17 17 15 14 14 13 12 12 13 13 12 11 11
6 4 3 3 7 6 2 1 5 7 3 2 2 3 3 3 3 3 3 2 1 5 4 3 5 2 4 5 5 4 2 4 5 6 10 14 15 18 23 26 28 26 22 20 22 24 24 22 23 23 22 25 27 28 29 32 33 33 32 31 30 30 30 30 27 26 24 23 22 19 18 17 15 16 17 15 14 13 12 11 12 13 12 12 12 11
4 5 4 0 3 6 4 2 1 4 2 3 4 3 3 1 1 1 2 1 1 5 3 3 4 3 3 3 5 5 1 8 12 13 18 20 18 17 22 28 29 27 24 21 18 17 16 15 16 20 21 23 25 27 28 30 31 32 31 31 32 33 33 32 30 28 26 24 23 21 19 18 15 15 16 15 14 13 12 10 11 11 12 12 11 11
2 5 3 1 1 7 5 4 6 4 3 3 4 5 5 4 3 2 1 1 2 3 3 2 2 3 2 3 7 6 5 15 22 21 19 20 21 23 25 26 25 22 20 16 13 12 11 10 10 11 19 23 23 25 27 29 30 30 29 30 33 35 35 33 32 30 26 24 24 23 20 18 15 14 15 14 12 12 11 10 9 9 9 10 10 10
3 4 5 4 7 10 4 3 6 2 2 4 1 4 3 5 5 3 3 4 3 1 3 1 2 3 3 4 8 4 5 10 18 20 17 16 23 28 27 24 24 21 18 14 11 9 6 7 7 6 8 17 24 26 27 28 29 28 26 27 32 36 34 31 30 29 25 23 24 24 22 19 16 15 15 13 12 11 10 9 8 7 6 6 7 8
2 5 6 4 10 10 5 3 2 3 2 3 3 1 3 5 7 4 2 3 2 2 3 2 1 3 0 2 5 4 3 3 10 13 13 17 24 27 25 24 23 20 17 14 13 11 8 6 6 6 7 9 17 22 22 23 25 24 23 25 29 32 32 29 26 25 23 21 22 23 21 19 17 16 15 13 12 11 10 9 8 7 5 2 3 4
2 3 7 3 3 6 8 5 2 2 4 2 3 3 2 2 5 4 1 1 2 1 3 2 2 3 2 3 4 4 5 4 7 8 11 18 23 23 23 24 21 19 18 16 14 13 10 8 8 8 10 11 11 13 14 14 15 17 19 21 23 28 32 30 27 26 23 20 20 21 21 20 18 17 16 12 11 11 11 10 9 8 6 4 2 0
2 1 7 6 4 3 2 3 2 4 0 3 5 3 2 2 1 1 2 1 0 1 2 3 3 1 2 2 5 4 4 4 5 7 10 14 17 21 24 23 20 18 17 15 15 15 13 11 9 8 10 11 10 10 10 9 9 11 13 12 14 25 30 29 27 26 25 22 20 19 21 20 16 15 16 14 11 10 10 11 10 8 7 6 5 3
2 1 4 6 7 7 5 3 2 3 4 2 4 4 1 4 3 2 2 3 3 2 2 3 3 2 1 3 5 4 2 6 6 7 7 9 16 23 25 23 20 18 16 14 16 17 16 14 11 10 10 11 10 9 8 8 9 9 9 7 10 19 22 23 24 25 25 24 21 19 18 17 14 12 14 15 13 11 11 11 11 9 8 7 6 6
3 2 2 6 8 7 3 1 2 2 0 1 1 2 2 1 2 1 1 1 2 3 2 0 1 3 4 3 4 5 3 5 9 9 7 8 16 23 24 23 20 18 15 13 14 17 17 15 13 12 12 13 13 12 10 9 8 8 10 9 9 11 13 18 22 23 24 24 23 21 18 16 15 13 14 15 14 14 14 14 13 11 9 8 7 7
2 2 1 3 5 3 5 6 5 3 1 2 3 2 1 2 3 3 3 3 1 2 3 3 1 5 5 3 5 6 6 3 11 13 9 11 17 21 22 21 19 17 14 12 12 15 15 14 13 13 13 13 13 12 11 10 9 8 8 8 7 6 8 15 20 20 22 23 22 21 20 19 18 18 18 18 17 17 17 16 14 12 12 11 10 9
1 3 2 1 3 4 8 10 10 9 7 1 3 3 2 3 3 4 2 3 2 1 2 4 2 5 5 4 4 4 4 7 14 16 14 16 19 20 20 19 17 16 15 13 13 13 13 12 11 12 12 12 11 11 11 11 10 9 7 6 9 10 10 16 19 18 20 22 21 21 22 22 22 22 22 22 21 20 19 17 16 14 13 13 12 11
3 3 2 2 4 5 8 11 10 9 8 3 1 2 3 1 1 3 3 3 2 1 1 3 0 4 5 4 4 4 5 11 16 18 18 18 19 20 20 19 18 16 16 15 15 13 12 11 11 12 12 12 10 9 9 11 11 11 9 9 10 12 13 17 19 20 21 21 21 22 23 23 23 22 21 21 21 21 20 19 18 17 15 14 14 14
1 1 2 1 3 5 6 7 7 7 6 3 3 4 4 3 4 4 2 2 2 1 2 4 1 4 4 5 6 7 8 11 12 17 22 21 20 22 21 20 18 15 15 15 15 14 13 12 12 12 13 13 12 11 10 11 12 11 11 10 10 11 14 16 16 18 20 20 21 22 21 20 21 20 20 20 20 21 20 19 19 19 18 17 16 16
2 1 3 4 2 1 1 1 2 5 5 3 5 6 4 4 5 4 2 4 1 2 2 4 2 4 4 5 7 7 6 8 7 11 16 17 20 21 20 19 17 15 15 14 14 15 15 13 11 12 13 12 12 11 11 12 12 12 11 11 10 10 13 16 16 16 17 18 18 18 18 18 19 19 19 20 21 20 19 18 18 18 18 18 18 18
2 1 2 3 5 4 4 3 2 5 4 4 6 8 6 5 5 5 3 2 2 0 2 2 5 3 1 3 5 5 6 7 7 10 11 13 18 19 17 17 16 15 15 14 14 15 16 14 13 13 12 13 13 12 11 12 12 12 12 12 11 10 11 14 16 15 14 14 14 15 16 16 17 16 16 17 17 17 16 16 17 17 17 18 19 20
3 2 2 2 2 3 5 8 8 7 6 6 6 7 8 6 6 5 1 3 3 3 2 2 5 4 3 1 4 3 5 6 5 10 13 15 19 18 17 17 15 14 14 13 13 16 16 15 15 15 14 14 14 11 10 11 11 11 11 11 10 10 11 12 14 13 12 11 12 13 13 11 11 12 11 11 10 10 10 12 13 14 15 17 18 19
4 1 2 3 4 5 6 7 8 7 7 6 5 6 7 6 6 4 4 5 2 2 5 4 1 2 3 2 3 3 7 8 10 8 7 17 21 21 20 18 16 15 15 13 12 14 15 16 15 15 16 17 16 14 12 11 10 10 10 11 12 12 11 11 11 11 10 11 11 10 9 8 7 8 7 6 4 4 4 5 5 7 9 11 13 14
4 1 2 1 3 5 6 7 8 7 6 7 6 7 6 6 5 4 3 4 1 3 5 3 1 3 1 4 4 7 15 16 19 21 14 6 8 16 20 19 18 16 14 15 16 15 14 14 13 13 14 14 13 12 11 11 11 9 9 11 12 13 13 12 10 10 8 9 10 9 7 7 7 6 6 5 5 4 4 3 2 3 4 6 7 7
3 1 1 2 3 5 6 6 8 7 7 7 7 7 6 7 7 5 4 5 4 2 3 6 7 4 5 6 8 15 22 22 20 21 22 20 14 4 10 12 15 16 14 15 17 17 16 15 14 12 12 13 12 11 9 9 10 9 8 9 9 10 12 12 12 11 8 7 9 9 8 7 6 5 5 6 6 4 3 3 3 4 4 4 4 5
2 0 1 5 4 3 4 5 7 7 7 8 7 6 5 5 4 2 2 4 4 4 7 9 8 4 7 9 10 15 20 18 15 17 20 23 22 16 11 5 3 10 15 19 19 19 19 19 17 15 13 12 12 12 11 9 9 9 8 8 8 8 8 8 9 11 9 7 8 9 8 8 7 6 6 6 6 6 6 6 7 6 6 5 5 6
3 2 1 3 2 3 2 4 7 7 7 6 4 5 5 2 1 3 4 5 6 5 5 5 2 1 6 11 10 9 10 10 11 15 17 18 19 21 22 20 16 9 5 19 22 20 20 18 17 17 14 11 10 10 8 6 9 12 10 8 9 8 5 4 6 8 7 6 8 8 9 9 8 7 7 7 7 8 8 9 9 8 7 7 8 8
1 3 2 2 2 2 1 5 6 5 2 4 2 7 7 4 4 5 4 6 8 5 3 3 3 4 8 11 9 8 8 11 16 19 19 19 19 21 24 23 21 19 12 9 17 19 19 19 18 17 13 10 11 11 8 3 5 9 8 6 6 6 4 5 5 5 6 6 7 7 7 7 7 8 9 9 8 8 8 8 8 8 8 9 10 11
3 3 2 2 3 1 2 6 5 2 4 2 5 9 8 7 7 6 5 8 10 6 5 7 7 7 10 12 14 15 13 14 23 27 26 23 22 20 21 22 20 20 18 14 15 17 17 17 17 15 11 9 10 10 6 1 1 4 4 4 5 6 6 6 6 6 7 6 6 7 6 5 5 7 8 8 7 7 6 5 5 5 7 7 8 9
5 4 2 2 2 2 2 3 2 4 4 4 8 8 7 8 8 6 6 10 13 9 7 8 6 6 11 16 19 20 17 14 21 26 26 24 23 22 19 19 20 19 17 16 16 15 15 14 11 7 5 5 7 7 4 2 2 3 5 5 5 6 6 6 6 7 6 6 7 8 7 5 6 7 7 7 7 6 5 5 4 4 6 6 7 8
5 4 2 1 1 3 4 3 2 2 6 6 5 5 5 5 4 3 3 5 10 11 8 7 7 8 12 17 20 20 18 14 14 19 25 23 22 22 21 19 18 16 14 12 10 7 5 6 5 3 1 1 3 5 5 2 0 1 4 5 5 5 6 6 7 7 7 8 10 9 7 7 8 8 8 9 9 8 7 7 8 8 9 9 9 9
7 6 5 3 1 3 4 1 1 1 2 2 2 4 8 9 7 3 3 3 8 14 14 10 8 10 12 15 20 21 16 11 6 11 22 23 20 20 21 20 18 15 14 11 8 7 5 2 2 2 3 4 4 5 6 5 4 4 4 5 6 8 8 7 7 8 9 10 10 9 8 8 9 9 9 10 10 10 10 11 12 12 11 11 10 10
2 1 4 4 2 2 4 2 1 2 2 2 4 7 13 16 12 5 3 3 6 15 18 14 9 11 13 15 17 16 10 6 2 9 19 22 19 19 21 21 18 15 14 13 11 10 8 5 6 6 4 4 5 7 6 6 6 7 8 8 9 10 10 11 11 11 11 11 10 9 9 10 11 11 11 12 13 14 15 15 15 14 13 12 12 12
7 4 3 3 2 2 4 3 1 1 2 3 6 9 16 17 11 5 2 2 8 15 18 17 13 13 16 17 16 11 5 4 4 10 18 19 17 18 20 20 20 17 14 13 13 13 11 7 7 8 8 6 5 7 8 8 8 10 11 12 12 13 13 14 14 14 14 15 15 15 14 14 15 15 15 16 16 16 16 16 15 15 14 15 14 13
4 3 3 3 2 0 2 2 1 1 1 4 9 13 17 14 7 4 1 4 9 13 16 18 16 15 15 14 13 9 7 9 11 14 17 18 18 19 19 19 20 19 17 17 17 17 15 13 10 11 11 9 8 8 10 12 13 14 15 14 15 16 16 16 17 17 17 17 17 18 18 17 17 17 17 16 16 15 15 15 16 16 17 17 17 16
3 2 2 2 2 2 2 2 2 1 1 4 8 13 14 7 2 2 2 7 10 12 15 15 15 15 15 13 12 12 13 15 16 16 17 17 19 20 20 20 20 20 19 19 19 19 19 18 16 16 15 13 13 14 13 15 17 18 18 16 16 16 16 16 17 17 17 17 17 18 18 18 17 18 17 17 17 17 17 17 18 19 20 20 19 18
3 1 2 2 2 2 2 3 3 1 3 5 6 7 7 3 1 2 6 8 10 14 17 16 15 17 17 16 15 16 16 17 17 18 18 19 20 21 22 22 22 22 21 21 21 21 20 20 20 21 20 18 18 18 17 18 19 18 17 17 17 17 17 18 18 19 19 19 18 18 18 18 18 18 18 18 18 19 20 21 21 22 22 21 19 18
4 2 0 1 2 2 2 2 1 5 3 2 3 2 3 2 3 5 7 10 15 19 20 19 19 19 19 18 18 17 17 18 18 19 19 20 21 22 22 23 23 23 22 22 24 24 23 23 24 24 23 22 21 21 21 22 22 20 18 16 14 14 16 18 18 19 20 20 20 19 19 19 19 19 20 21 21 22 22 22 23 23 22 19 17 18
3 3 1 1 2 2 2 1 2 7 4 6 5 3 5 9 13 16 15 16 18 19 18 19 20 20 19 18 18 17 17 17 17 18 18 19 20 21 22 22 22 23 22 21 22 24 24 24 24 23 22 20 20 19 18 16 16 18 18 17 15 15 16 16 17 18 19 20 22 22 22 22 22 21 21 22 22 23 24 24 23 22 20 18 17 18
4 8 6 2 2 2 2 7 10 7 7 11 11 10 13 16 19 20 18 17 17 17 17 18 19 19 18 17 17 17 17 18 19 21 22 23 24 25 24 24 24 25 25 24 23 24 23 21 19 17 16 15 14 14 13 12 12 13 14 16 17 18 18 18 17 18 18 19 21 22 23 23 22 22 21 20 19 19 20 21 22 21 19 18 18 20
6 11 7 2 3 3 2 7 14 13 13 16 18 18 19 20 21 20 17 16 17 16 14 15 16 18 18 18 18 18 19 20 21 23 24 24 25 25 25 25 26 26 26 26 25 25 24 23 21 20 18 17 17 17 18 19 18 17 16 16 17 18 20 20 20 21 21 21 20 20 21 22 23 23 22 21 20 20 19 18 17 17 18 18 19 19
5 9 5 3 4 2 0 7 15 14 12 16 20 21 21 21 22 21 18 17 16 14 14 14 15 17 18 18 18 19 20 20 21 22 22 22 22 22 22 23 24 25 25 26 25 25 25 25 24 23 22 21 21 21 22 23 24 24 24 23 22 22 22 23 23 24 25 25 25 23 20 20 21 23 23 22 22 22 22 21 19 17 17 18 19 19
7 7 2 1 4 3 2 10 17 13 10 16 21 21 20 21 20 18 17 15 15 15 17 18 17 17 17 17 18 19 21 21 21 22 22 22 22 22 22 23 23 24 25 25 26 26 25 24 23 21 21 21 22 23 24 24 25 26 26 26 26 26 27 28 28 29 29 30 30 30 27 24 22 22 24 25 24 22 21 22 23 22 21 21 21 21
8 5 2 3 4 3 3 9 12 7 5 12 19 19 20 19 17 14 14 14 14 15 17 17 17 17 18 18 19 20 22 23 22 22 22 22 21 20 20 20 20 21 22 23 23 23 21 20 19 18 19 20 21 23 23 23 24 25 25 26 27 28 29 30 30 30 31 31 32 32 32 31 28 26 25 26 27 26 25 24 23 22 21 21 20 19
9 6 5 5 1 2 6 12 13 8 6 11 16 17 17 16 15 15 15 14 14 14 14 15 17 19 19 19 19 20 21 23 22 22 22 21 20 20 19 19 20 21 21 21 21 20 18 18 19 20 21 21 22 23 24 26 28 29 29 29 29 28 28 28 28 28 29 29 30 30 29 29 29 27 27 27 27 27 27 26 24 21 20 20 20 18
Wind_Direction
192 180 237 226 235 236 222 205 238 320 352 337 334 320 324 324 316 97 127 172 119 113 184 196 215 246 232 217 203 171 148 132 137 144 148 155 154 154 158 161 167 169 168 166 164 166 163 159 161 169 179 188 193 196 198 194 187 182 177 170 161 157 157 155 153 146 135 131 129 131 139 139 139 157 167 173 179 176 171 157 141 142 133 129 133 121
192 193 232 228 233 224 201 160 100 27 9 360 355 329 326 324 317 32 91 94 65 91 291 339 348 301 320 283 246 183 143 137 154 153 155 164 161 160 162 163 167 168 169 170 166 170 171 167 169 174 181 187 188 191 196 193 187 183 180 175 166 162 163 162 161 149 133 131 130 136 147 147 147 155 153 159 174 170 165 165 160 133 118 116 128 134
202 223 239 230 232 216 184 68 65 42 16 10 360 337 313 303 325 354 34 51 50 67 316 358 8 317 319 333 310 212 153 155 164 161 163 169 167 165 166 166 167 166 170 172 169 172 174 172 174 175 178 184 187 188 190 192 191 186 183 180 173 169 168 167 165 154 145 147 148 151 156 156 159 157 148 127 134 145 149 155 152 127 111 101 107 130
199 239 243 222 203 183 119 38 43 30 9 336 297 316 292 289 342 342 331 33 52 72 105 31 8 313 316 343 331 296 135 142 159 164 168 174 176 176 174 171 169 167 171 173 171 172 174 175 179 178 177 180 185 186 187 194 197 192 187 184 179 176 175 169 166 165 164 159 158 162 160 157 159 151 141 116 114 116 114 123 131 130 126 121 119 121
226 232 217 175 171 160 113 56 44 46 354 295 243 229 265 282 319 339 292 8 38 12 30 56 19 317 317 336 310 307 73 128 150 158 167 179 183 181 177 172 168 167 171 172 171 173 175 178 181 181 181 182 184 186 189 195 200 197 190 186 184 182 179 174 172 173 172 166 164 165 160 158 159 149 142 133 121 110 105 109 113 120 128 138 145 131
234 210 138 110 139 136 105 111 185 142 327 302 257 228 236 265 287 273 290 27 46 348 304 95 56 300 301 307 275 287 91 146 150 148 168 182 176 176 174 170 170 168 170 172 173 177 180 183 183 184 188 188 186 188 191 194 200 203 196 188 185 186 184 181 179 177 175 173 171 171 168 166 162 153 148 137 120 110 104 102 100 103 111 125 142 135
223 189 134 107 85 43 73 342 265 176 171 290 268 263 259 273 286 268 281 38 83 276 259 134 121 264 298 305 267 263 246 213 180 137 161 149 145 163 170 171 172 169 170 173 173 179 185 187 187 188 192 194 190 189 190 194 199 204 205 195 188 189 190 188 182 178 177 177 175 173 167 162 157 151 144 133 118 112 108 105 104 98 96 100 108 114
154 122 114 117 118 84 156 252 258 202 171 234 237 266 304 325 323 305 320 337 204 234 291 154 142 174 280 283 267 268 288 245 174 121 130 128 134 153 165 171 175 174 177 178 177 184 190 190 191 192 196 198 196 192 189 193 199 205 210 203 193 193 196 194 186 180 179 176 172 169 162 154 150 145 140 134 124 122 121 112 101 88 86 86 88 94
136 134 164 152 134 157 200 230 245 205 186 237 223 215 301 2 348 337 341 302 231 134 310 293 166 163 266 273 287 298 300 173 154 143 140 143 149 157 165 172 177 181 183 181 179 186 192 193 195 196 199 201 201 197 194 195 198 203 209 209 204 200 202 201 192 185 183 179 172 163 154 147 148 147 141 136 131 128 123 108 98 89 87 85 85 88
175 171 181 153 133 178 215 230 243 233 214 219 216 171 58 36 332 317 319 312 34 75 268 282 300 144 280 278 296 324 292 182 168 170 160 153 146 154 163 173 176 176 179 181 182 188 195 198 198 199 202 204 204 203 199 197 198 201 203 206 212 212 210 206 199 193 186 182 176 163 150 147 153 156 146 140 137 129 118 107 104 101 94 90 88 88
242 175 168 153 164 200 255 251 255 255 224 153 122 15 31 16 278 270 285 60 56 19 253 254 255 226 285 279 247 261 246 188 149 128 143 111 82 117 142 168 179 176 176 182 187 190 194 198 200 203 208 209 209 209 205 201 200 203 201 199 208 221 220 210 203 199 191 185 179 164 155 156 157 157 152 147 142 132 125 119 112 106 99 95 92 91
289 171 171 210 194 209 299 303 300 298 304 75 60 34 30 347 322 321 341 51 75 269 257 268 276 240 239 265 241 233 236 144 113 101 120 101 84 92 101 132 158 161 167 181 189 190 191 195 200 208 214 213 212 213 212 208 205 205 204 202 204 216 224 216 205 202 197 189 181 168 162 164 163 160 155 150 144 135 130 123 113 109 105 102 100 98
285 242 230 209 195 199 201 273 305 311 315 110 99 64 61 328 347 14 334 27 165 241 255 326 328 280 229 251 264 254 195 111 114 130 118 102 93 88 83 92 109 113 121 147 168 181 188 193 202 211 216 214 212 213 214 213 211 209 208 209 205 208 219 221 211 204 201 192 181 172 168 168 171 165 155 151 147 138 132 124 114 110 107 104 102 98
303 293 278 282 178 192 174 132 247 292 294 150 158 137 136 178 30 320 284 13 243 259 287 324 312 292 273 286 307 294 180 95 92 103 107 100 94 90 86 86 93 100 104 111 127 148 162 173 194 212 218 216 216 217 217 215 215 214 211 211 208 205 213 221 217 206 202 196 182 174 174 174 174 170 159 155 150 141 138 128 115 110 105 101 98 95
296 315 276 321 131 178 181 175 186 216 269 223 190 151 150 152 146 192 210 156 233 274 313 315 240 243 232 259 288 310 40 81 89 96 97 93 92 92 90 87 87 88 90 96 109 127 141 147 157 194 214 218 218 219 220 219 216 212 209 209 210 209 209 215 218 210 200 195 183 176 179 180 177 173 166 162 156 148 142 131 119 113 103 97 96 94
239 258 235 212 170 166 184 222 194 163 334 274 283 95 155 171 147 158 190 200 202 320 311 268 226 230 184 237 270 310 40 76 96 102 100 90 89 93 92 88 87 84 80 79 81 92 126 156 143 138 191 214 219 220 221 219 214 210 208 209 211 210 207 208 213 209 201 195 185 179 184 186 180 176 174 170 161 152 142 132 125 123 112 95 93 92
198 257 274 208 164 162 179 232 207 114 113 299 328 99 202 166 134 135 237 246 111 72 278 232 236 291 303 248 247 185 148 95 100 103 103 97 93 94 94 93 93 92 89 85 81 84 97 140 154 121 116 172 205 214 217 217 215 214 213 213 212 210 206 203 203 200 198 196 188 184 188 188 183 179 178 172 161 155 150 142 138 144 150 139 91 81
132 276 300 298 170 181 184 183 4 60 108 53 304 272 301 73 105 118 112 342 61 89 268 221 193 247 224 258 262 184 174 155 128 120 102 97 96 96 97 99 99 98 99 100 101 99 98 117 139 131 122 134 161 183 195 204 211 214 214 215 215 212 206 202 200 195 194 195 192 193 196 193 188 182 178 171 159 158 162 159 158 165 175 194 207 239
52 339 300 315 335 312 189 133 26 328 148 171 240 277 36 72 27 38 116 117 152 163 294 277 253 250 166 238 278 244 185 145 129 123 110 106 106 104 103 104 104 104 108 111 115 116 114 117 129 140 141 138 139 154 172 186 193 201 210 212 209 209 204 195 193 193 192 192 191 199 204 199 192 182 176 175 169 167 172 174 177 183 190 204 219 239
64 92 283 312 345 358 5 75 136 286 297 238 258 307 55 152 167 185 165 151 156 173 249 282 291 319 254 237 275 291 111 96 60 49 84 111 112 111 111 113 114 116 122 125 122 120 118 122 133 143 149 151 156 168 177 188 194 194 200 201 195 201 195 183 186 192 192 188 186 196 205 200 191 174 167 175 178 179 182 182 184 188 193 207 224 240
45 86 251 305 342 4 348 274 179 193 317 49 11 340 325 348 85 60 346 51 120 149 185 85 341 291 268 277 335 356 33 104 89 64 57 84 101 109 115 119 124 126 130 135 133 126 122 124 130 136 150 162 167 176 184 189 196 191 189 198 206 209 194 177 182 192 193 186 181 187 197 195 188 176 172 180 184 183 183 183 183 183 184 197 221 242
43 99 159 300 334 332 276 291 331 355 351 136 140 160 167 96 83 57 340 318 13 136 154 133 231 267 260 293 2 15 359 57 104 104 98 92 97 106 113 118 125 127 128 132 137 139 137 132 130 135 150 163 166 174 183 188 192 187 187 197 201 200 187 178 178 182 187 185 180 183 192 195 192 186 185 186 185 185 188 192 193 194 194 197 212 235
69 100 85 284 277 280 291 309 327 329 322 283 149 136 110 99 109 120 200 258 262 248 149 124 178 268 273 298 358 21 22 72 103 112 111 107 108 111 113 117 121 124 127 127 128 137 145 145 147 148 150 153 158 165 173 180 182 176 171 167 160 154 159 171 173 170 174 180 181 181 187 195 196 195 195 194 193 195 201 207 212 216 214 211 217 230
8 76 75 305 293 307 316 318 318 320 327 325 311 79 78 28 115 132 191 198 178 253 73 96 222 275 283 303 343 359 54 89 105 113 113 115 120 122 122 123 124 125 128 131 131 131 133 134 142 154 160 159 156 158 163 170 174 171 160 146 143 145 150 161 169 171 171 175 179 182 188 195 197 197 200 205 208 210 214 220 225 228 229 233 237 238
8 71 96 42 340 337 335 331 334 341 357 355 330 27 58 29 47 51 355 42 65 288 107 102 215 262 285 335 2 2 41 86 113 124 126 129 129 128 130 128 128 131 134 136 137 133 127 121 121 134 150 159 164 169 170 168 170 170 165 153 139 137 147 160 170 175 176 178 183 186 191 199 203 204 208 217 221 222 225 231 233 233 236 243 245 238
130 131 111 119 167 253 280 302 358 343 349 354 330 347 10 12 44 69 54 59 32 298 68 105 180 251 303 8 14 354 32 78 90 98 111 124 127 128 130 131 135 139 144 145 143 141 137 131 125 123 128 135 141 153 166 173 177 178 177 175 162 146 149 159 165 169 176 186 193 195 198 203 209 217 221 223 224 226 231 235 234 235 239 244 247 246
77 53 91 134 179 199 236 263 329 344 334 328 325 331 338 353 37 63 63 91 170 300 347 192 157 153 232 48 37 5 26 51 77 96 101 110 123 132 134 138 144 145 146 146 143 144 143 142 143 135 124 123 122 127 143 158 171 181 187 191 187 179 169 167 173 179 185 193 198 202 206 210 213 220 225 224 225 228 231 231 232 236 240 242 247 254
69 7 314 284 254 261 282 299 318 322 308 302 308 315 317 331 8 25 336 229 170 78 317 255 103 108 213 121 70 65 39 26 74 127 143 139 137 144 146 144 147 146 146 143 134 135 134 135 145 146 137 133 129 125 129 137 149 162 171 176 175 175 178 180 184 188 190 191 190 190 195 202 207 211 217 222 227 231 232 232 235 240 244 248 254 261
104 212 255 286 288 286 294 299 303 298 294 301 303 298 305 322 347 343 264 241 195 146 231 229 93 256 238 67 55 87 71 46 37 54 146 162 154 154 153 151 153 154 157 157 150 145 137 131 132 136 138 139 135 133 132 134 141 147 150 153 153 153 157 164 170 169 168 170 171 173 171 168 170 177 184 190 195 201 208 218 229 238 250 257 261 266
106 187 248 310 314 318 331 324 316 313 305 306 310 305 307 326 354 12 343 312 304 200 220 198 107 276 306 47 40 56 58 55 45 37 39 77 144 164 162 157 159 161 163 166 165 160 153 145 134 125 129 135 138 142 144 144 149 150 144 144 148 152 152 150 151 151 151 150 150 153 147 137 141 146 143 140 143 156 172 179 197 224 247 259 264 272
88 185 211 58 26 344 333 321 316 321 322 321 321 321 334 355 2 20 23 3 2 332 344 57 62 7 339 9 46 60 53 50 46 36 29 28 30 108 167 172 180 180 171 165 166 169 167 163 156 145 137 137 141 148 153 157 158 153 141 138 144 152 156 158 156 153 157 153 144 144 146 145 144 139 134 139 147 161 178 192 217 232 241 261 278 288
91 189 49 67 47 312 303 321 325 341 356 349 337 338 3 25 17 30 63 50 55 27 18 42 50 357 329 352 33 59 56 53 48 34 31 34 37 45 51 44 223 211 194 180 173 174 176 173 170 167 159 147 142 140 141 151 162 158 144 144 157 164 166 169 163 162 170 163 143 142 154 164 160 148 155 173 179 183 186 198 218 232 238 253 272 282
118 109 75 91 96 261 276 349 351 9 10 339 326 354 354 344 70 70 45 38 61 70 49 53 72 326 357 9 21 39 48 60 58 45 44 44 40 43 45 43 35 21 199 188 178 166 163 165 166 167 166 160 154 155 152 140 151 162 162 161 175 186 184 167 159 169 178 168 162 169 180 188 184 169 176 194 200 202 206 213 223 230 233 241 251 259
136 125 159 139 140 248 338 36 21 15 332 270 329 14 359 356 61 81 64 43 58 77 88 93 87 43 30 28 22 13 25 51 52 48 53 52 46 47 46 43 43 41 53 148 168 159 151 152 154 156 159 157 154 160 164 122 139 172 184 188 198 205 189 169 174 194 195 181 182 195 202 204 196 187 192 200 208 219 225 225 226 225 228 234 241 247
168 154 188 148 141 196 43 50 33 289 235 197 44 23 12 24 47 76 81 50 40 40 52 60 56 49 48 43 28 13 15 50 56 48 47 45 40 42 44 45 48 50 61 95 129 139 140 142 147 153 159 163 160 162 162 92 290 224 213 212 228 229 209 195 196 207 213 209 204 206 209 212 209 208 213 218 225 234 235 231 235 237 240 246 250 255
161 157 186 165 144 145 88 94 160 241 277 33 44 23 14 22 24 40 52 31 20 24 53 62 52 52 53 45 32 14 10 47 63 47 39 37 31 31 41 47 48 50 63 87 105 117 127 130 127 130 152 173 174 177 171 115 123 207 208 202 211 227 242 239 215 211 224 227 218 216 213 210 218 226 236 248 254 257 259 266 278 275 272 276 275 271
176 169 165 167 172 136 139 183 208 308 337 2 20 10 24 37 26 52 87 36 14 14 30 46 39 37 41 38 29 16 14 44 59 35 26 26 23 25 32 34 34 39 52 70 81 88 124 146 124 86 75 206 196 203 212 208 54 258 227 213 208 221 250 256 229 223 238 239 236 239 228 212 219 230 241 256 267 274 277 283 288 286 284 289 292 290
195 195 166 158 197 130 129 175 311 349 303 287 309 355 16 15 4 15 87 56 360 356 11 32 39 31 31 28 21 15 21 45 50 13 14 15 14 17 17 17 21 25 28 34 42 38 31 6 337 312 235 245 264 256 251 268 300 306 268 244 249 250 246 244 241 246 254 248 239 236 227 225 235 241 242 250 260 267 271 276 281 282 282 286 293 297
84 167 144 136 142 110 117 144 209 199 211 290 321 347 355 353 352 3 55 46 336 343 5 23 28 28 30 23 16 16 30 53 13 350 1 1 2 8 5 1 6 11 12 14 20 27 27 4 330 312 294 291 288 290 306 308 291 281 267 257 262 265 256 251 253 254 256 250 238 231 233 235 237 237 240 247 254 261 268 273 275 276 278 284 293 295
36 27 49 78 97 147 158 170 206 170 91 355 328 336 343 345 360 38 82 352 319 332 360 14 12 20 27 21 18 25 46 47 357 350 356 351 347 352 355 353 353 350 349 348 347 351 348 335 325 322 326 331 306 288 297 300 288 280 276 270 269 270 265 259 255 254 253 253 252 253 252 246 242 245 251 257 262 266 269 271 273 275 277 283 291 290
24 26 47 64 60 77 167 158 124 97 37 324 321 341 346 345 13 73 160 277 304 329 360 6 357 3 14 15 17 16 3 359 351 346 351 349 341 339 340 342 341 338 336 330 324 324 324 319 315 313 313 313 307 296 288 286 285 281 277 273 268 266 266 264 262 260 258 257 257 258 257 254 253 255 259 262 264 266 265 264 265 268 274 281 286 280
11 15 30 41 43 45 87 110 63 24 282 296 327 356 4 358 44 86 291 289 304 330 352 350 343 357 10 12 12 5 354 351 347 342 342 340 336 333 330 329 329 327 328 327 323 321 318 313 310 307 301 298 302 304 298 292 290 284 277 273 269 269 272 269 265 262 261 260 260 260 260 259 258 258 259 259 260 259 258 258 260 263 269 276 278 273
20 18 4 6 27 55 66 68 52 334 264 278 313 0 26 40 173 260 292 306 336 355 357 355 359 11 15 12 7 0 352 347 341 337 335 331 328 327 323 322 322 319 317 317 316 316 314 310 307 302 297 294 296 299 299 295 294 292 284 276 272 272 273 271 267 264 263 263 265 265 264 263 263 262 262 260 260 259 259 260 262 265 268 272 272 266
16 14 43 22 37 52 46 45 171 219 230 9 6 5 25 4 2 14 3 6 16 14 7 5 5 3 2 0 355 347 341 338 332 328 326 323 321 320 317 318 319 316 313 311 309 309 307 304 302 299 296 293 291 292 293 292 291 289 287 283 279 273 271 271 272 268 264 263 265 266 266 264 264 264 263 262 262 262 263 264 264 265 267 267 262 258
3 10 71 51 36 94 141 107 198 205 177 72 61 38 27 28 32 37 33 26 19 9 1 359 355 351 350 350 346 342 339 333 326 323 319 314 311 310 309 310 313 312 310 308 309 311 308 301 295 294 293 292 289 287 290 294 293 288 284 282 280 276 276 277 276 273 269 268 269 270 269 268 267 267 267 266 266 265 264 264 263 262 260 255 249 252
31 31 47 48 20 54 61 40 40 38 36 42 43 39 38 35 30 26 21 15 7 357 351 348 343 340 342 340 336 334 331 324 318 313 309 307 307 306 304 302 301 301 301 301 305 313 315 306 297 294 292 291 288 285 285 291 296 295 291 285 280 279 280 279 277 275 274 274 274 274 271 269 268 268 268 267 268 268 265 262 259 255 250 245 243 248
32 32 40 46 32 32 22 32 32 24 20 28 30 26 22 15 10 9 7 3 357 348 346 344 335 329 330 330 329 327 320 316 314 310 307 307 306 305 305 303 300 299 299 297 299 307 312 309 305 303 299 292 288 285 284 283 283 283 283 281 277 276 276 275 274 274 273 272 273 274 275 272 268 265 265 264 264 266 266 265 261 251 243 240 240 244
20 29 31 26 26 26 248 21 20 16 15 16 14 12 7 358 353 353 350 347 347 345 342 338 333 330 329 326 326 323 317 314 313 308 306 305 302 301 303 303 301 299 296 293 296 302 306 306 305 303 300 296 292 288 285 283 281 279 277 275 273 273 273 272 271 270 269 268 266 266 269 272 268 264 262 261 260 261 264 267 267 259 249 246 247 252
34 37 29 31 22 360 348 14 16 17 10 358 354 354 353 347 344 344 342 338 340 338 334 330 327 326 325 323 322 320 316 313 311 307 303 301 300 299 299 299 300 300 296 293 295 298 301 302 302 298 293 291 291 288 285 282 280 279 277 275 273 272 273 272 272 270 268 266 264 261 262 264 264 261 259 259 258 258 260 264 264 261 258 259 262 265
42 38 24 46 32 356 354 14 19 21 347 338 340 341 343 343 342 342 341 338 335 333 331 329 324 318 314 314 315 314 312 310 308 305 301 298 297 298 297 297 298 296 293 291 292 295 298 299 296 292 286 282 282 281 278 277 275 275 275 274 272 271 271 271 271 270 267 265 264 262 261 261 261 259 258 259 260 259 258 257 256 255 258 262 264 262
58 61 59 64 71 299 351 5 7 359 325 326 332 333 336 340 340 341 341 337 333 330 326 324 321 317 315 314 312 307 305 305 304 302 299 296 295 296 295 293 291 290 292 292 291 294 296 293 288 287 284 281 280 280 278 277 276 273 272 270 268 267 266 265 265 265 264 262 262 262 262 262 262 261 260 259 258 256 254 252 250 252 256 256 253 248